Munson, PA (16860)

5:51 AM EDT on August 04, 2015 (GMT -0400)
Woodland | | Change Station
CLOSE
Current Station
Personal Weather Station
Location: Woodland, PA
Elevation: 1765 ft
Nearby Weather Stations

Elev 1765 ft 41.01 °N, 78.35 °W | Updated 6 minutes ago

Mostly Cloudy
Mostly Cloudy
61.2 °F
Feels Like 61.2 °F
N
0.0
Wind Variable Wind from West

Today
High -- | Low -- °F
--% Chance of Precip.
Yesterday
High -- | Low -- °F
Precip. -- in
6:11 AM 8:25 PM
Waning Gibbous, 79% visible
Pressure 29.92 in
Visibility 6.0 miles
Clouds Few 200 ft
Scattered Clouds 1000 ft
Overcast 1300 ft
Dew Point 59 °F
Humidity 92%
Rainfall 0.00 in
Snow Depth Not available.
UV 0 out of 12
Pollen 6.90 out of 12
Air Quality Not available.
Flu Activity Not available.
SPECI KFIG 040927Z AUTO 21006KT 6SM BR FEW002 SCT010 OVC013 17/16 A2992 RMK AO2 T01720161

More Conditions Fewer Conditions

Pressure 29.92 in
Visibility 6.0 miles
Clouds Few 200 ft
Scattered Clouds 1000 ft
Overcast 1300 ft
Dew Point 59 °F
Humidity 92%
Rainfall 0.00 in
Snow Depth Not available.
UV 0 out of 12
Pollen 6.90 out of 12
Air Quality Not available.
Flu Activity Not available.
SPECI KFIG 040927Z AUTO 21006KT 6SM BR FEW002 SCT010 OVC013 17/16 A2992 RMK AO2 T01720161

More Conditions Fewer Conditions

10-Day Weather Forecast

×

Almanac

Astronomy

Aug. 04, 2015 Rise Set
Actual Time
Civil Twilight
Nautical Twilight
Astronomical Twilight
Moon
Length of Visible Light
Length of Day
Tomorrow will be .
, % of the Moon is Illuminated

Today's Extremes

State Highs State Lows

Community

WunderPhotos

Upload Photos

1,843,880 photos uploaded!

WunderBlogs® & News

Nearby

Air Quality

  Air Quality AQ Index Pollutant
Not available.

Snow Depth

Station Depth Elevation

Earthquake Activity

City Distance Mag. Time & Date
Minimum magnitude displayed is 2.5.

Coastal Water Temperatures

Place Temperature

Stations

Nearby Weather Stations

Station Location Temp. Windchill Dew Point Humidity Wind Precip. Elev Updated Type